Quincy, IL

6:54 PM CDT on April 25, 2017 (GMT -0500)
Quincy Regional-Baldwin

Weather History for KUIN - March, 2014

Change the Weather History Date:

Tuesday, March 4, 2014

  Actual Average Record
Temperature  
Mean Temperature 23 °F 37 °F  
Max Temperature 36 °F 46 °F 73 °F (1961)
Min Temperature 10 °F 28 °F -8 °F (1978)
Degree Days  
Heating Degree Days 42 28  
Month to date heating degree days 202 114  
Since 1 July heating degree days 5096 4456  
Cooling Degree Days 0 0  
Month to date cooling degree days 0 0  
Year to date cooling degree days 0 0  
Moisture  
Dew Point 11 °F    
Average Humidity 56    
Maximum Humidity 70    
Minimum Humidity 41    
Precipitation  
Precipitation 0.00 in 0.08 in 1.74 in (1964)
Month to date precipitation 0.01 0.32  
Year to date precipitation 2.13 3.72  
Sea Level Pressure  
Sea Level Pressure 30.21 in    
Wind  
Wind Speed 7 mph (SSE)    
Max Wind Speed 14 mph    
Max Gust Speed 16 mph    
Visibility 10 miles    
Events      
T = Trace of Precipitation, MM = Missing Value Source: NWS Daily Summary

Daily Weather History Graph

Daily Weather History Graph

Search for Another Location

Airport or City:

Trip Planner

Search our weather history database for the weather conditions in past years. The results will help you decide how hot, cold, wet, or windy it might be!

Date:

Astronomy

Mar. 04, 2014 Rise Set
Actual Time 6:33 AM CST 5:59 PM CST
Civil Twilight 6:06 AM CST 6:27 PM CST
Nautical Twilight 5:35 AM CST 6:58 PM CST
Astronomical Twilight 5:03 AM CST 7:29 PM CST
Moon 8:19 AM CST (3/4) 10:07 PM CST (3/4)
Length of Visible Light 12h 20m
Length of Day
11h 26m
Waxing Crescent, 15% of the Moon is Illuminated
Mar 4
Waxing Crescent
Mar 8
First Quarter
Mar 16
Full
Mar 23
Last Quarter
Mar 30
New

Hourly Weather History & Observations

Time (CST) Temp. Windchill Dew Point Humidity Pressure Visibility Wind Dir Wind Speed Gust Speed Precip Events Conditions
12:54 AM 15.1 °F 7.7 °F 3.9 °F 61% 30.36 in 10.0 mi South 4.6 mph - N/A   Overcast
1:54 AM 15.1 °F - 5.0 °F 64% 30.35 in 10.0 mi Calm Calm - N/A   Mostly Cloudy
2:54 AM 12.9 °F 5.2 °F 5.0 °F 71% 30.32 in 10.0 mi SE 4.6 mph - N/A   Scattered Clouds
4:54 AM 12.0 °F 2.7 °F 3.9 °F 70% 30.30 in 10.0 mi SSE 5.8 mph - N/A   Scattered Clouds
5:54 AM 12.9 °F 5.2 °F 5.0 °F 71% 30.28 in 10.0 mi SSE 4.6 mph - N/A   Scattered Clouds
6:54 AM 12.0 °F 4.1 °F 3.9 °F 70% 30.29 in 10.0 mi SSE 4.6 mph - N/A   Clear
7:54 AM 14.0 °F 5.1 °F 5.0 °F 67% 30.27 in 10.0 mi SSE 5.8 mph - N/A   Clear
8:54 AM 19.0 °F 8.2 °F 6.1 °F 57% 30.26 in 10.0 mi South 9.2 mph - N/A   Clear
9:54 AM 21.9 °F 9.8 °F 7.0 °F 53% 30.25 in 10.0 mi South 12.7 mph - N/A   Clear
10:54 AM 25.0 °F 14.2 °F 9.0 °F 51% 30.25 in 10.0 mi South 11.5 mph - N/A   Clear
11:54 AM 28.0 °F 20.8 °F 10.9 °F 49% 30.22 in 10.0 mi SSW 6.9 mph - N/A   Clear
12:54 PM 30.0 °F 23.2 °F 10.9 °F 45% 30.18 in 10.0 mi South 6.9 mph - N/A   Clear
1:54 PM 33.1 °F 24.9 °F 12.9 °F 43% 30.16 in 10.0 mi SSW 10.4 mph - N/A   Clear
2:54 PM 34.0 °F 26.6 °F 14.0 °F 44% 30.14 in 10.0 mi SSW 9.2 mph - N/A   Clear
3:54 PM 35.1 °F 31.0 °F 15.1 °F 44% 30.15 in 10.0 mi SSE 4.6 mph - N/A   Clear
4:54 PM 36.0 °F 31.1 °F 15.1 °F 43% 30.13 in 10.0 mi SSE 5.8 mph - N/A   Clear
5:54 PM 35.1 °F 32.2 °F 18.0 °F 50% 30.12 in 10.0 mi East 3.5 mph - N/A   Clear
6:54 PM 30.9 °F 26.2 °F 18.0 °F 59% 30.14 in 10.0 mi SE 4.6 mph - N/A   Clear
7:54 PM 30.9 °F 23.5 °F 17.1 °F 57% 30.13 in 10.0 mi East 8.1 mph - N/A   Clear
8:54 PM 28.9 °F 21.1 °F 17.1 °F 61% 30.13 in 10.0 mi East 8.1 mph - N/A   Clear
9:54 PM 28.9 °F 21.1 °F 17.1 °F 61% 30.14 in 10.0 mi ESE 8.1 mph - N/A   Clear
10:54 PM 28.0 °F 19.3 °F 16.0 °F 61% 30.14 in 10.0 mi ESE 9.2 mph - N/A   Clear
11:54 PM 28.0 °F 20.0 °F 17.1 °F 63% 30.15 in 10.0 mi East 8.1 mph - N/A   Clear